User: anonymous   Login
Location: Unspecified
(0.0000°N, 0.0000°E)
Time: 18:10:05
(UTC+00:00)
Language:

ONEWEB-0019 - Orbit

View from above orbital plane
View from above orbital plane
View from above satellite
View from above satellite

Ground track
Ground track

The orbit is defined by the following mean orbital elements,

1 45449U          26145.39994285 +.00000000 +00000-0 -65682-3 0 00007
2 45449  87.8913  25.5884 0001648  80.8792 279.2523 13.11417232    04
Epoch (UTC): 25 May 2026 09:35:55
Eccentricity: 0.0001648
inclination: 87.8913°
perigee height: 1216 km
apogee height: 1219 km
right ascension of ascending node: 25.5884°
argument of perigee: 80.8792°
revolutions per day: 13.11417232
mean anomaly at epoch: 279.2523°

The dashed part of the orbit path shows where the satellite is in the earth's shadow,  

DLR